Wind_Speed
13 10 14 14 15 15 14 13 13 12 12 13 12 10 10 9 7 7 7 6 5 4 4 5 5 5 6 7 6 5 3 2 2 2 2 2 2 4 5 6 7 6 4
14 12 14 14 15 15 14 14 12 12 11 11 10 9 8 7 7 6 5 5 5 5 5 6 5 6 7 8 6 5 4 3 1 2 4 5 5 4 4 6 6 6 6
11 14 13 15 16 15 15 14 12 11 10 9 8 7 7 6 6 6 6 6 6 6 6 6 7 6 6 6 5 4 4 4 5 3 3 6 4 4 1 3 4 6 6
11 14 15 17 17 17 17 16 14 13 11 9 8 6 5 5 6 7 7 6 6 7 7 8 8 6 7 8 8 7 7 8 7 6 6 6 6 1 1 2 4 5 6
12 15 16 18 19 20 19 19 18 18 17 14 11 9 8 7 6 7 8 8 8 8 8 8 9 8 6 6 7 7 7 6 9 7 9 10 9 7 4 2 6 7 5
14 15 15 17 18 20 20 19 17 17 18 18 16 13 11 10 8 7 8 9 9 9 9 9 8 7 7 6 5 6 6 8 5 6 6 5 6 5 7 9 8 8 7
14 15 15 15 16 18 18 17 15 14 14 15 17 17 15 11 9 9 8 9 9 9 9 8 8 8 8 5 4 5 5 5 5 5 6 6 7 8 7 10 5 7 6
13 15 14 15 14 15 15 15 14 14 13 13 12 12 12 14 9 9 8 9 10 12 11 9 8 8 8 7 5 5 5 5 5 4 4 5 5 8 10 9 9 6 6
10 12 14 15 14 14 13 13 13 13 12 12 11 11 13 14 15 8 9 12 12 12 12 12 10 9 8 5 3 3 3 4 4 4 3 3 4 7 10 7 6 7 3
8 9 11 13 14 14 13 12 12 12 12 11 10 11 11 12 12 11 4 9 9 12 16 8 9 8 5 2 1 1 2 1 2 4 5 4 4 6 7 8 2 4 7
10 10 10 10 11 11 11 10 9 9 9 8 8 8 8 9 8 8 7 8 10 12 14 12 10 9 7 4 4 7 6 6 6 7 6 6 4 3 7 10 2 6 6
10 10 10 9 10 10 9 8 7 7 7 7 7 7 8 7 6 6 7 8 10 11 12 16 17 9 9 11 7 9 11 12 11 12 10 9 7 5 6 8 5 5 7
11 10 9 9 9 9 9 9 8 8 8 8 7 8 8 8 8 8 9 10 11 12 10 10 11 13 16 13 7 14 15 16 15 13 14 12 10 8 5 5 3 2 4
12 11 10 10 9 8 7 7 6 6 6 6 7 7 7 7 8 9 9 9 10 10 10 10 10 10 10 10 12 17 16 9 9 13 15 10 5 10 9 8 4 2 4
13 12 12 11 11 9 8 7 6 5 6 5 5 5 5 6 6 6 6 8 10 9 9 8 9 11 11 11 11 14 17 19 18 18 19 11 7 6 9 14 7 5 5
13 12 13 13 11 9 9 7 5 4 5 5 4 5 6 6 8 10 10 11 12 12 11 11 10 10 11 11 11 11 13 14 17 19 20 24 23 10 10 13 4 8 8
10 9 10 10 9 9 8 8 6 6 5 3 3 5 7 8 10 10 11 11 12 12 13 14 14 15 14 12 12 12 12 12 15 14 15 18 21 17 13 6 8 12 10
7 5 4 4 4 5 3 4 4 5 7 7 9 9 9 10 10 10 9 8 9 9 8 10 11 12 13 12 13 14 12 13 14 13 11 15 19 18 8 8 13 12 12
8 9 7 4 4 4 8 12 13 12 10 10 11 11 11 10 10 9 10 11 12 13 11 10 10 9 8 9 12 14 13 14 13 15 14 13 13 15 7 12 7 10 8
9 10 9 8 6 6 7 10 12 12 12 12 12 11 10 10 12 13 13 14 13 14 15 13 11 11 13 10 11 13 15 16 14 14 14 12 12 11 8 4 3 3 5
8 11 14 14 11 9 8 8 8 7 6 7 9 11 10 11 14 16 16 15 14 18 16 16 14 13 13 13 14 15 15 14 13 14 13 11 10 7 5 5 3 5 6
7 9 12 14 13 12 9 7 6 4 6 9 10 12 11 12 14 15 14 15 18 18 17 19 18 16 16 16 14 13 14 12 11 11 13 12 11 10 7 8 8 8 7
5 6 10 12 13 13 14 10 6 4 7 8 8 10 12 15 15 16 17 14 14 16 18 22 22 21 19 18 18 17 16 17 15 11 12 14 15 16 14 11 13 14 13
7 9 9 11 13 12 11 11 10 7 6 7 8 8 11 14 15 19 17 18 20 21 22 19 22 22 22 23 22 21 21 19 20 18 16 14 13 15 18 18 16 16 15
8 9 10 10 11 12 12 11 9 7 6 8 10 12 14 14 15 16 18 20 22 23 24 21 22 22 23 26 27 28 25 25 24 24 24 18 16 17 18 19 20 23 21
8 10 10 12 12 12 12 12 12 11 9 9 13 14 16 17 20 23 22 25 25 28 26 25 24 25 25 26 29 29 30 27 27 25 24 25 20 18 18 22 22 23 25
Wind_Direction
108 101 98 111 112 110 109 107 109 108 105 105 106 106 104 102 103 104 103 103 99 89 81 72 65 46 32 28 22 16 14 26 12 359 338 299 235 218 218 219 219 203 208
117 110 104 113 112 112 108 105 103 102 104 106 109 109 104 101 100 98 104 106 93 83 67 61 54 41 31 27 16 9 357 337 308 14 344 309 265 224 207 219 216 216 200
112 107 109 112 113 110 106 102 103 105 104 106 106 102 100 96 89 85 79 74 76 75 73 66 53 49 44 45 50 44 22 359 4 18 2 4 274 224 240 263 226 218 203
107 105 105 105 103 98 94 92 92 91 85 81 84 88 82 73 69 67 66 69 67 66 59 55 47 48 66 72 68 61 46 42 37 41 46 45 56 72 267 247 243 239 215
103 103 105 102 98 93 91 90 89 87 78 70 67 64 60 59 59 53 47 50 54 60 64 60 52 61 57 67 68 57 51 54 50 58 64 64 55 28 24 316 260 247 232
102 99 103 104 99 94 92 93 92 88 81 72 72 68 61 54 55 46 44 49 46 52 53 54 52 51 51 52 63 55 53 64 79 49 52 51 45 26 4 346 304 250 212
103 98 101 105 102 96 92 92 90 86 80 74 70 65 58 45 55 54 43 48 50 50 49 48 48 49 49 58 47 65 64 43 68 73 65 45 31 20 12 360 337 256 191
94 97 97 99 100 96 94 93 88 82 76 72 66 60 50 45 58 68 64 56 50 46 45 44 42 46 46 48 51 49 49 20 15 48 73 62 40 22 27 19 37 119 173
96 100 102 100 101 100 98 95 91 84 76 73 73 67 60 56 56 81 75 51 48 36 33 26 32 31 34 44 60 43 21 26 359 342 356 13 35 21 25 19 81 97 85
101 94 98 101 99 96 96 96 92 86 83 78 72 70 68 65 68 74 65 40 31 32 14 24 25 29 19 25 345 254 248 251 313 311 314 326 359 12 5 10 83 131 115
94 89 91 95 95 93 92 96 93 84 80 76 61 51 62 69 64 66 59 44 32 33 12 23 27 7 350 322 280 279 275 259 241 242 257 276 290 335 356 7 9 164 159
98 94 89 86 84 83 83 84 86 79 71 66 58 42 36 48 50 42 31 27 25 29 52 34 21 6 327 319 286 289 273 266 257 251 247 256 272 298 337 359 7 182 182
97 93 90 88 84 80 77 75 73 71 66 59 54 50 43 44 41 39 33 29 35 33 32 25 13 20 36 22 349 319 290 249 253 255 251 250 254 272 288 304 345 182 206
99 98 97 93 91 87 81 78 66 63 60 54 44 38 32 35 36 31 29 18 26 31 24 19 12 10 27 356 357 356 12 267 253 281 239 231 276 273 269 261 255 231 210
100 98 97 89 85 82 82 75 67 46 48 28 24 18 20 6 1 9 4 352 358 1 9 359 357 353 0 3 349 353 1 9 353 348 349 326 358 310 263 242 232 253 254
96 99 96 93 93 88 80 73 65 56 41 25 8 11 16 4 0 358 357 353 348 342 348 338 342 340 351 353 343 349 354 355 357 359 359 0 355 340 285 274 223 248 260
125 122 112 110 104 90 81 75 66 61 48 22 17 7 27 23 12 9 1 349 341 347 345 335 335 328 343 345 334 340 346 342 345 4 350 4 1 339 270 258 253 234 239
66 89 116 118 111 122 75 51 55 47 48 38 30 29 27 27 17 9 1 353 348 349 346 336 336 341 331 328 324 327 333 333 341 346 356 0 358 3 344 297 244 224 222
56 62 70 58 69 73 69 63 58 54 51 50 43 31 27 27 20 11 0 354 348 337 333 333 331 328 328 321 320 318 327 326 334 346 351 355 3 345 341 358 276 213 228
77 80 84 97 118 107 102 82 71 60 48 40 33 30 22 8 4 357 350 349 344 336 332 331 325 320 315 325 319 321 328 325 339 339 334 340 344 340 337 322 228 222 225
90 77 72 74 97 106 113 113 97 91 86 62 35 20 12 8 359 349 348 346 344 340 334 330 329 330 321 326 326 322 321 325 330 327 326 320 314 324 332 305 271 259 261
98 97 93 85 77 71 74 90 94 71 41 28 12 3 353 346 348 341 338 339 338 346 345 345 336 329 325 324 320 321 319 322 327 325 315 308 300 290 287 284 277 278 276
69 68 69 72 79 63 66 73 71 37 29 16 347 344 340 335 335 342 337 342 343 336 336 337 334 332 323 315 313 315 317 318 320 322 323 320 306 295 289 279 276 268 270
24 23 25 27 25 43 49 52 58 55 23 355 341 319 320 316 325 322 320 319 320 326 321 318 319 316 317 314 310 311 312 316 315 312 309 303 308 306 295 286 274 260 277
3 8 4 2 3 6 5 9 20 17 8 349 326 318 305 301 299 308 305 308 308 310 314 309 306 310 310 310 308 310 307 308 306 307 307 303 294 288 293 295 286 274 270
337 341 348 347 346 348 343 339 338 335 331 310 309 307 309 308 301 297 296 303 309 311 310 300 297 295 297 301 300 303 308 308 306 302 299 301 296 288 284 286 291 280 275
Height
5901 5902 5900 5901 5900 5900 5902 5904 5905 5906 5907 5907 5908 5909 5908 5908 5908 5908 5908 5908 5908 5909 5908 5908 5908 5907 5906 5906 5905 5904 5904 5905 5905 5905 5904 5903 5902 5903 5904 5904 5905 5905 5906
5902 5903 5903 5903 5903 5903 5904 5905 5907 5908 5909 5910 5910 5910 5910 5910 5910 5910 5910 5909 5910 5910 5910 5910 5909 5908 5908 5907 5906 5905 5904 5903 5904 5904 5905 5904 5902 5901 5901 5903 5903 5903 5904
5905 5905 5906 5906 5905 5906 5906 5907 5908 5910 5910 5911 5912 5913 5913 5912 5912 5912 5912 5912 5911 5911 5911 5910 5910 5910 5909 5908 5908 5907 5905 5904 5904 5904 5903 5902 5901 5901 5900 5901 5901 5901 5902
5908 5907 5908 5908 5909 5909 5909 5910 5911 5912 5912 5913 5913 5914 5914 5914 5914 5913 5912 5912 5912 5912 5912 5913 5912 5911 5910 5910 5909 5908 5907 5905 5905 5904 5903 5902 5901 5902 5901 5900 5901 5901 5901
5911 5909 5910 5911 5912 5912 5912 5912 5914 5914 5914 5915 5915 5915 5915 5915 5915 5915 5914 5914 5913 5913 5913 5913 5913 5913 5913 5912 5911 5910 5909 5908 5907 5905 5904 5903 5902 5901 5900 5900 5900 5900 5899
5913 5912 5912 5912 5913 5913 5913 5914 5915 5916 5916 5916 5916 5916 5917 5917 5916 5916 5915 5915 5915 5915 5915 5915 5914 5914 5914 5914 5913 5912 5911 5909 5908 5907 5905 5904 5901 5900 5899 5898 5897 5897 5898
5916 5915 5915 5915 5915 5915 5915 5916 5917 5918 5918 5919 5918 5918 5918 5917 5917 5918 5918 5917 5917 5917 5917 5917 5916 5916 5915 5915 5915 5914 5913 5911 5910 5909 5907 5905 5903 5900 5897 5895 5894 5895 5897
5919 5918 5918 5918 5918 5918 5918 5919 5919 5920 5920 5921 5920 5920 5920 5919 5919 5920 5919 5920 5920 5920 5920 5919 5918 5918 5918 5918 5917 5916 5915 5914 5912 5911 5909 5907 5905 5903 5899 5895 5894 5894 5896
5921 5920 5920 5920 5920 5920 5920 5921 5921 5922 5923 5923 5923 5922 5922 5922 5921 5922 5922 5922 5922 5922 5922 5922 5921 5920 5919 5919 5918 5917 5916 5915 5915 5913 5911 5909 5906 5904 5901 5898 5895 5895 5895
5923 5922 5922 5922 5923 5923 5923 5923 5923 5924 5925 5926 5925 5925 5925 5924 5923 5923 5924 5924 5924 5924 5923 5921 5920 5920 5919 5917 5917 5916 5914 5914 5915 5914 5912 5909 5907 5905 5903 5900 5897 5897 5896
5924 5924 5924 5925 5925 5925 5925 5926 5926 5927 5927 5928 5927 5927 5927 5926 5925 5924 5924 5925 5925 5925 5923 5920 5920 5919 5919 5918 5916 5915 5914 5913 5912 5912 5911 5911 5908 5906 5904 5903 5899 5897 5899
5926 5926 5926 5927 5927 5927 5927 5927 5927 5928 5929 5929 5929 5929 5929 5928 5927 5926 5926 5926 5926 5925 5924 5922 5921 5918 5918 5918 5917 5917 5915 5913 5912 5911 5910 5910 5909 5907 5906 5905 5904 5902 5900
5927 5928 5928 5929 5929 5928 5928 5928 5929 5929 5930 5930 5930 5930 5930 5929 5928 5928 5928 5927 5928 5926 5924 5923 5922 5920 5918 5917 5916 5915 5911 5911 5910 5910 5909 5908 5909 5908 5906 5906 5905 5904 5903
5929 5930 5930 5930 5930 5929 5929 5929 5930 5930 5930 5931 5931 5931 5931 5931 5930 5929 5928 5928 5927 5926 5925 5924 5921 5919 5919 5917 5915 5912 5908 5909 5908 5908 5905 5906 5908 5906 5906 5906 5905 5903 5901
5931 5931 5932 5931 5931 5930 5930 5930 5930 5930 5930 5931 5931 5931 5930 5930 5929 5930 5929 5928 5926 5925 5925 5923 5921 5919 5918 5916 5914 5913 5910 5909 5908 5906 5906 5904 5904 5902 5901 5901 5901 5903 5902
5934 5934 5933 5932 5932 5930 5930 5929 5929 5929 5929 5930 5931 5930 5930 5929 5929 5928 5926 5925 5925 5926 5925 5923 5921 5919 5918 5916 5913 5912 5910 5909 5906 5907 5905 5903 5902 5901 5899 5898 5899 5902 5903
5936 5934 5933 5933 5933 5931 5931 5930 5929 5929 5929 5930 5931 5931 5930 5929 5928 5927 5926 5925 5926 5924 5922 5921 5921 5919 5917 5915 5914 5911 5910 5909 5907 5907 5904 5902 5902 5898 5896 5896 5899 5902 5901
5936 5935 5934 5934 5934 5933 5932 5931 5931 5930 5930 5931 5931 5931 5930 5930 5929 5928 5927 5926 5924 5922 5921 5919 5917 5916 5916 5914 5912 5910 5910 5909 5908 5906 5905 5901 5898 5895 5892 5894 5895 5898 5896
5935 5934 5933 5932 5932 5932 5932 5931 5931 5930 5931 5931 5931 5931 5930 5929 5929 5928 5927 5926 5924 5922 5921 5918 5916 5914 5912 5912 5909 5908 5908 5908 5907 5906 5903 5899 5896 5894 5894 5893 5893 5893 5893
5937 5936 5934 5933 5933 5934 5934 5933 5933 5933 5932 5932 5932 5932 5931 5931 5930 5929 5927 5925 5924 5922 5920 5918 5917 5914 5911 5909 5906 5905 5906 5906 5905 5904 5902 5899 5898 5896 5894 5893 5891 5892 5893
5940 5938 5936 5935 5935 5936 5936 5936 5936 5936 5935 5935 5934 5932 5932 5931 5930 5929 5927 5925 5924 5922 5919 5917 5915 5914 5911 5908 5906 5904 5903 5903 5902 5903 5901 5899 5898 5896 5893 5891 5891 5891 5892
5941 5940 5939 5938 5938 5937 5937 5936 5937 5936 5935 5932 5931 5930 5930 5929 5928 5927 5926 5924 5922 5920 5917 5915 5913 5911 5909 5906 5904 5901 5900 5901 5900 5900 5899 5898 5896 5894 5892 5891 5889 5889 5890
5942 5940 5939 5938 5938 5937 5936 5936 5935 5934 5933 5932 5931 5930 5929 5927 5926 5925 5924 5922 5920 5918 5916 5914 5912 5910 5908 5906 5903 5901 5897 5895 5896 5896 5895 5894 5892 5889 5888 5888 5888 5888 5887
5940 5939 5937 5936 5935 5936 5935 5935 5934 5933 5932 5930 5929 5929 5928 5927 5924 5923 5920 5918 5917 5916 5913 5910 5908 5907 5906 5905 5903 5899 5895 5892 5889 5891 5892 5890 5889 5888 5886 5884 5884 5884 5882
5939 5938 5937 5936 5935 5934 5933 5933 5933 5931 5930 5929 5928 5927 5925 5924 5922 5921 5920 5918 5915 5914 5911 5909 5906 5905 5902 5901 5900 5898 5895 5891 5887 5885 5883 5885 5884 5883 5882 5881 5880 5879 5878
5936 5936 5936 5935 5935 5934 5933 5931 5930 5929 5928 5927 5925 5924 5922 5920 5918 5916 5915 5913 5910 5908 5907 5906 5902 5900 5898 5896 5894 5892 5890 5889 5885 5882 5879 5876 5876 5877 5876 5875 5875 5874 5873